Regional Weather Roundup
Issued by NWS

Home | Current Version | Previous Version | Graphics & Text | Print | Product List | Glossary On
Versions: 1 2 3 4 5 6 7 8 9 10 11 12 13 14 15 16 17 18 19 20 21 22 23 24 25 26 27 28 29 30 31 32 33 34 35 36 37 38 39 40 41 42 43 44 45 46 47 48 49 50
000
ASUS44 KMEG 290110
RWRTN
TENNESSEE HOURLY STATE WEATHER ROUNDUP
NATIONAL WEATHER SERVICE MEMPHIS TN
800 PM CDT THU AUG 28 2014

TNZ002-004-019-021-049-052-054-088>092-290200-
WEST TENNESSEE

CITY           SKY/WX    TMP DP  RH WIND       PRES   REMARKS
MEMPHIS INTL   MOCLDY    88  63  43 CALM      29.95R
NWS MEMPHIS      N/A     84 N/A N/A MISG        N/A
JACKSON        CLEAR     80  73  79 CALM      29.96R
DYERSBURG      CLEAR     81  66  61 NE3       29.96R
UNION CITY     CLEAR     73  72  94 CALM      29.97R
PARIS          CLEAR     73  70  88 CALM      30.00R
HUNTINGDON     CLOUDY    77  72  84 NE5       29.98R
LEXINGTON      CLEAR     79  72  78 CALM      29.97R
SAVANNAH       CLEAR     77  75  94 CALM      29.98R
$$

TNZ008-025-027-028-033-062-065-066-290200-
NORTH MIDDLE TENNESSEE

CITY           SKY/WX    TMP DP  RH WIND       PRES   REMARKS
NASHVILLE      MOCLDY    82  71  69 N6        30.00R
DICKSON        PTCLDY    75  68  78 NE5       30.01S
PORTLAND       MOCLDY    75  70  83 CALM      30.01R
CLARKSVILLE    CLOUDY    77  73  87 SE3       30.00R
LEBANON        PTCLDY    82  70  67 E3        29.99R
SMYRNA         CLOUDY    85  75  71 NE5       30.00R HX  93
MURFREESBORO   PTCLDY    85  71  62 E3        29.99R HX  90
COOKEVILLE     PTCLDY    77  72  83 E5        30.04R
GALLATIN       PTCLDY    83  75  76 N5        30.01R HX  90
CROSSVILLE     MOCLDY    74  69  85 N3        30.10R
$$

TNZ061-075-076-078-094-096-097-290200-
SOUTH MIDDLE TENNESSEE

CITY           SKY/WX    TMP DP  RH WIND       PRES   REMARKS
LEWISBURG      PTCLDY    77  72  84 CALM      29.99R
FAYETTEVILLE   CLEAR     77  66  69 CALM      30.02R
TULLAHOMA      CLEAR     77  68  73 CALM      30.04R
WINCHESTER     CLEAR     77  70  78 S5        30.03R
MCMINNVILLE    CLEAR     79  75  89 NE3       30.04R
COLUMBIA       CLEAR     81  73  78 CALM      29.98S
SHELBYVILLE    MOCLDY    81  75  83 CALM      30.02R
$$

TNZ017-018-042-046-047-290200-
NORTHEAST TENNESSEE

CITY           SKY/WX    TMP DP  RH WIND       PRES   REMARKS
TRI CITIES     PTCLDY    77  69  76 CALM      30.07R
ELIZABETHTON   CLEAR     72  66  83 CALM      30.08R
$$

TNZ012-013-036-069-073-074-290200-
CENTRAL EAST TENNESSEE

CITY           SKY/WX    TMP DP  RH WIND       PRES   REMARKS
KNOXVILLE      PTCLDY    83  69  62 CALM      30.02R
OAK RIDGE      PTCLDY    81  72  74 CALM      30.04R
GATLINBURG     CLEAR     79  70  73 CALM      30.03R
MORRISTOWN     CLEAR     79  70  73 CALM      30.06R
$$

TNZ083-085-099-290200-
SOUTHEAST TENNESSEE

CITY           SKY/WX    TMP DP  RH WIND       PRES   REMARKS
CHATTANOOGA    PTCLDY    82  68  62 N3        30.01R
$$

SKY/WX REPORTED AS FAIR MEANS FEW OR NO CLOUDS BELOW
12 THOUSAND FEET.




USA.gov is the U.S. government's official web portal to all federal, state and local government web resources and services.